Bluewater, NM

2:59 PM MST on February 07, 2016 (GMT -0700)
Grants-Milan Municipal

Weather History for KGNT - April, 2013

Change the Weather History Date:

Wednesday, April 3, 2013

  Actual Average Record
Temperature  
Mean Temperature 46 °F -  
Max Temperature 64 °F 62 °F 76 °F (1959)
Min Temperature 27 °F 27 °F 10 °F (1979)
Degree Days  
Heating Degree Days 20    
Moisture  
Dew Point 20 °F    
Average Humidity 43    
Maximum Humidity 78    
Minimum Humidity 14    
Precipitation  
Precipitation 0.00 in - - ()
Sea Level Pressure  
Sea Level Pressure 30.14 in    
Wind  
Wind Speed 6 mph (NNW)    
Max Wind Speed 22 mph    
Max Gust Speed 30 mph    
Visibility 10 miles    
Events      
Averages and records for this station are not official NWS values.
T = Trace of Precipitation, MM = Missing Value Source: NWS Daily Summary

Daily Weather History Graph

Daily Weather History Graph

Search for Another Location

Airport or City:

Trip Planner

Search our weather history database for the weather conditions in past years. The results will help you decide how hot, cold, wet, or windy it might be!

Date:

Astronomy

Apr. 03, 2013 Rise Set
Actual Time 6:55 AM MDT 7:34 PM MDT
Civil Twilight 6:29 AM MDT 8:00 PM MDT
Nautical Twilight 5:59 AM MDT 8:30 PM MDT
Astronomical Twilight 5:28 AM MDT 9:01 PM MDT
Moon 2:24 AM MDT (4/3) 1:04 PM MDT (4/3)
Length of Visible Light 13h 30m
Length of Day
12h 39m
Last Quarter, 44% of the Moon is Illuminated
Apr 3
Last Quarter
Apr 10
New
Apr 18
First Quarter
Apr 25
Full
May 2
Last Quarter

Hourly Weather History & Observations

Time (MDT) Temp. Windchill Dew Point Humidity Pressure Visibility Wind Dir Wind Speed Gust Speed Precip Events Conditions
12:15 AM 35.1 °F 31.0 °F 23.4 °F 62% 30.07 in 10.0 mi West 4.6 mph - N/A   Clear
12:35 AM 35.4 °F - 25.2 °F 66% 30.08 in 10.0 mi Calm Calm - N/A   Clear
12:55 AM 33.3 °F 28.9 °F 24.1 °F 69% 30.08 in 10.0 mi WNW 4.6 mph - N/A   Clear
1:15 AM 34.9 °F 30.8 °F 25.7 °F 69% 30.09 in 10.0 mi West 4.6 mph - N/A   Clear
1:35 AM 34.5 °F 31.6 °F 24.8 °F 68% 30.09 in 10.0 mi NNE 3.5 mph - N/A   Clear
1:55 AM 33.1 °F - 24.6 °F 71% 30.09 in 10.0 mi Calm Calm - N/A   Scattered Clouds
2:15 AM 31.3 °F 26.6 °F 22.6 °F 70% 30.09 in 10.0 mi North 4.6 mph - N/A   Mostly Cloudy
2:35 AM 29.3 °F 24.3 °F 20.7 °F 70% 30.09 in 10.0 mi NW 4.6 mph - N/A   Mostly Cloudy
2:55 AM 34.2 °F - 24.3 °F 67% 30.09 in 10.0 mi Calm Calm - N/A   Overcast
3:15 AM 33.3 °F 28.9 °F 23.2 °F 67% 30.09 in 10.0 mi NW 4.6 mph - N/A   Overcast
3:35 AM 33.3 °F 30.2 °F 23.5 °F 68% 30.09 in 10.0 mi NNW 3.5 mph - N/A   Overcast
3:55 AM 30.6 °F 24.7 °F 20.5 °F 66% 30.09 in 10.0 mi NW 5.8 mph - N/A   Scattered Clouds
4:15 AM 30.9 °F 25.2 °F 22.3 °F 70% 30.09 in 10.0 mi WNW 5.8 mph - N/A   Clear
4:35 AM 30.0 °F - 21.6 °F 71% 30.09 in 10.0 mi Calm Calm - N/A   Clear
4:55 AM 27.3 °F 22.0 °F 19.4 °F 72% 30.10 in 10.0 mi North 4.6 mph - N/A   Clear
5:15 AM 28.6 °F 22.4 °F 20.3 °F 71% 30.10 in 10.0 mi WNW 5.8 mph - N/A   Scattered Clouds
5:35 AM 28.4 °F 23.3 °F 21.0 °F 74% 30.11 in 10.0 mi NW 4.6 mph - N/A   Scattered Clouds
5:55 AM 27.1 °F 20.7 °F 21.0 °F 78% 30.12 in 10.0 mi NW 5.8 mph - N/A   Clear
6:15 AM 27.5 °F 21.1 °F 21.4 °F 78% 30.12 in 10.0 mi NW 5.8 mph - N/A   Scattered Clouds
6:35 AM 28.8 °F 23.7 °F 21.6 °F 74% 30.13 in 10.0 mi NW 4.6 mph - N/A   Mostly Cloudy
6:55 AM 28.4 °F 23.3 °F 19.4 °F 69% 30.13 in 10.0 mi NNW 4.6 mph - N/A   Overcast
7:15 AM 29.3 °F 25.6 °F 19.8 °F 68% 30.14 in 10.0 mi North 3.5 mph - N/A   Mostly Cloudy
7:35 AM 30.7 °F 22.0 °F 20.1 °F 65% 30.15 in 10.0 mi NW 10.4 mph - N/A   Mostly Cloudy
7:55 AM 32.0 °F 23.6 °F 22.6 °F 68% 30.15 in 10.0 mi NW 10.4 mph - N/A   Scattered Clouds
8:15 AM 34.5 °F 30.4 °F 23.0 °F 63% 30.16 in 10.0 mi NNW 4.6 mph - N/A   Clear
8:35 AM 37.4 °F 32.8 °F 25.0 °F 61% 30.17 in 10.0 mi NNW 5.8 mph - N/A   Clear
8:55 AM 39.7 °F 33.7 °F 26.4 °F 59% 30.18 in 10.0 mi NW 9.2 mph - N/A   Clear
9:15 AM 40.5 °F 36.5 °F 27.0 °F 59% 30.18 in 10.0 mi NNW 5.8 mph - N/A   Scattered Clouds
9:35 AM 43.2 °F 40.5 °F 27.1 °F 53% 30.18 in 10.0 mi NNW 4.6 mph - N/A   Scattered Clouds
9:55 AM 45.7 °F 43.4 °F 28.4 °F 51% 30.17 in 10.0 mi NW 4.6 mph - N/A   Clear
10:15 AM 48.4 °F - 30.2 °F 49% 30.17 in 10.0 mi North 5.8 mph - N/A   Clear
10:35 AM 49.8 °F - 30.6 °F 48% 30.17 in 10.0 mi North 9.2 mph - N/A   Clear
10:55 AM 51.6 °F - 28.8 °F 41% 30.17 in 10.0 mi NNW 9.2 mph - N/A   Scattered Clouds
11:15 AM 53.4 °F - 28.0 °F 38% 30.16 in 10.0 mi North 13.8 mph 18.4 mph N/A   Scattered Clouds
11:35 AM 54.5 °F - 27.3 °F 35% 30.16 in 10.0 mi NE 15.0 mph 20.7 mph N/A   Scattered Clouds
11:55 AM 55.4 °F - 27.0 °F 34% 30.16 in 10.0 mi North 9.2 mph 20.7 mph N/A   Mostly Cloudy
12:15 PM 56.8 °F - 25.9 °F 30% 30.16 in 10.0 mi NW 10.4 mph 18.4 mph N/A   Scattered Clouds
12:35 PM 56.1 °F - 24.3 °F 29% 30.16 in 10.0 mi North 8.1 mph - N/A   Mostly Cloudy
12:55 PM 58.3 °F - 23.9 °F 27% 30.15 in 10.0 mi North 8.1 mph 24.2 mph N/A   Mostly Cloudy
1:15 PM 60.3 °F - 23.2 °F 24% 30.14 in 10.0 mi NNW 15.0 mph 21.9 mph N/A   Mostly Cloudy
1:35 PM 59.7 °F - 23.4 °F 25% 30.14 in 10.0 mi WNW 5.8 mph 18.4 mph N/A   Scattered Clouds
1:55 PM 60.4 °F - 22.1 °F 23% 30.14 in 10.0 mi North 9.2 mph 21.9 mph N/A   Scattered Clouds
2:15 PM 60.8 °F - 21.0 °F 22% 30.13 in 10.0 mi North 6.9 mph 20.7 mph N/A   Clear
2:35 PM 61.7 °F - 21.0 °F 21% 30.13 in 10.0 mi North 6.9 mph 18.4 mph N/A   Clear
2:55 PM 63.1 °F - 22.5 °F 21% 30.12 in 10.0 mi North 15.0 mph 21.9 mph N/A   Scattered Clouds
3:15 PM 63.3 °F - 22.1 °F 21% 30.12 in 10.0 mi North 11.5 mph 24.2 mph N/A   Scattered Clouds
3:35 PM 64.2 °F - 21.6 °F 20% 30.12 in 10.0 mi NNW 17.3 mph 25.3 mph N/A   Clear
3:55 PM 63.5 °F - 19.0 °F 18% 30.12 in 10.0 mi NNW 17.3 mph 26.5 mph N/A   Clear
4:15 PM 63.9 °F - 17.8 °F 17% 30.11 in 10.0 mi NW 20.7 mph 27.6 mph N/A   Clear
4:35 PM 64.0 °F - 18.3 °F 17% 30.11 in 10.0 mi NNW 21.9 mph - N/A   Clear
4:55 PM 63.7 °F - 15.1 °F 15% 30.12 in 10.0 mi NNW 21.9 mph 29.9 mph N/A   Clear
5:15 PM 63.5 °F - 15.4 °F 16% 30.12 in 10.0 mi NNW 16.1 mph 25.3 mph N/A   Clear
5:35 PM 63.3 °F - 15.1 °F 15% 30.12 in 10.0 mi NW 16.1 mph 29.9 mph N/A   Clear
5:55 PM 63.0 °F - 14.2 °F 15% 30.12 in 10.0 mi NNW 18.4 mph 25.3 mph N/A   Clear
6:15 PM 62.8 °F - 13.5 °F 15% 30.12 in 10.0 mi North 18.4 mph 21.9 mph N/A   Clear
6:35 PM 61.5 °F - 12.4 °F 15% 30.12 in 10.0 mi NNW 16.1 mph 23.0 mph N/A   Clear
6:55 PM 60.8 °F - 11.3 °F 14% 30.14 in 10.0 mi NNW 15.0 mph - N/A   Clear
7:15 PM 59.4 °F - 13.5 °F 17% 30.14 in 10.0 mi NNW 10.4 mph - N/A   Clear
7:35 PM 57.2 °F - 13.8 °F 18% 30.14 in 10.0 mi North 11.5 mph - N/A   Clear
7:55 PM 54.1 °F - 13.5 °F 20% 30.15 in 10.0 mi NNW 6.9 mph - N/A   Clear
8:15 PM 48.7 °F - 12.4 °F 23% 30.16 in 10.0 mi NW 10.4 mph - N/A   Clear
8:35 PM 48.9 °F - 13.5 °F 24% 30.17 in 10.0 mi WNW 4.6 mph - N/A   Clear
8:55 PM 47.5 °F - 13.1 °F 25% 30.18 in 10.0 mi WNW 3.5 mph - N/A   Clear
9:15 PM 48.4 °F - 13.8 °F 25% 30.19 in 10.0 mi NNW 4.6 mph - N/A   Clear
9:35 PM 46.6 °F - 14.4 °F 27% 30.20 in 10.0 mi NNW 3.5 mph - N/A   Clear
9:55 PM 43.0 °F - 12.9 °F 30% 30.21 in 10.0 mi Calm Calm - N/A   Clear
10:15 PM 41.9 °F 39.0 °F 12.4 °F 30% 30.21 in 10.0 mi NNW 4.6 mph - N/A   Clear
10:35 PM 40.8 °F - 13.5 °F 33% 30.22 in 10.0 mi Calm Calm - N/A   Clear
10:55 PM 36.1 °F - 11.7 °F 36% 30.23 in 10.0 mi Calm Calm - N/A   Clear
11:15 PM 34.2 °F - 10.0 °F 37% 30.23 in 10.0 mi Calm Calm - N/A   Clear
11:35 PM 32.0 °F 27.5 °F 9.1 °F 38% 30.23 in 10.0 mi West 4.6 mph - N/A   Clear
11:55 PM 36.0 °F 33.3 °F 11.3 °F 36% 30.24 in 10.0 mi NNW 3.5 mph - N/A   Clear